Content
SEND FEEDBACK

Daily
Averages
Monthly
Summary
United States of America

SOUTH LAKE TAHOE, CALIFORNIA


Home > North America > United States > California
Elevation: 6263 feet     Latitude: 38 53N     Longitude: 119 59W

WEATHER
 
SELECT A DAY
Number of Records: 174,627;   Date Range: 1/1/95 - 9/18/14
 
SHARE

PRINT THIS DATA

[ ← Previous Day ]
WEATHER ALMANAC - APRIL 24, 2013
[ Next Day → ]
[ °C ]   °F
Weather ElementAverageHighLow
Temperature47.8 °F60.8 °F (5:15 pm)30 °F (4:53 am)
Dewpoint12.3 °F26.1 °F (1:53 am)3 °F (7:53 am)
Humidity30.8 %76 % (3:53 am)13 % (4:53 pm)
Barometer30.00 in30.04 in (8:53 am)29.94 in (6:53 pm)
Wind Speed5.4 mph12.7 mph (1:53 pm)
Wind Gust26.5 mph (9:53 am)
Weather ElementAverage
Visibility9.7 mi
Wind DirectionENE (62.5 °)

Weather ElementTotal
Precipitation---
Heating Degree Days19.6 (Base 65)
Averaged from 24 records on April 24, 2013
WEATHER CONDITIONS BREAKOUT
WIND DIRECTION BREAKOUT
WEATHER BY HOUR - APRIL 24, 2013
[ °C ]   °F
Local TimeTemperatureDewpointHumidityBarometerVisibilityWind DirectionWind SpeedGust SpeedPrecipitationEventsConditions
1:53 AM33.1 °F26.1 °F75 %30.01 in10.0 miSW (220°)3.5 mphClear
3:53 AM30.9 °F24.1 °F76 %29.99 in10.0 miCalmClear
4:53 AM30.0 °F23.0 °F75 %30.00 in10.0 miCalmClear
5:53 AM30.0 °F21.9 °F72 %30.00 in10.0 miSouth (190°)3.5 mphClear
6:53 AM37.0 °F12.9 °F37 %30.01 in10.0 miCalmClear
7:53 AM46.0 °F3.0 °F17 %30.02 in10.0 miVariable5.8 mph17.3 mphClear
8:53 AM48.0 °F3.9 °F16 %30.04 in10.0 miENE (60°)10.4 mph16.1 mphClear
9:53 AM50.0 °F3.0 °F15 %30.04 in10.0 miESE (110°)8.1 mph26.5 mphClear
10:53 AM53.1 °F5.0 °F14 %30.03 in10.0 miESE (110°)9.2 mph18.4 mphClear
11:53 AM55.0 °F7.0 °F15 %30.02 in10.0 miEast (100°)11.5 mph26.5 mphClear
12:53 PM57.0 °F8.1 °F14 %30.01 in10.0 miEast (80°)9.2 mph19.6 mphClear
1:53 PM57.9 °F8.1 °F14 %30.00 in10.0 miNE (50°)12.7 mph21.9 mphClear
2:53 PM59.0 °F9.0 °F14 %29.99 in10.0 miEast (80°)10.4 mph17.3 mphClear
3:53 PM60.1 °F10.0 °F14 %29.96 in10.0 miENE (60°)8.1 mph16.1 mphClear
4:53 PM60.1 °F8.1 °F13 %29.95 in10.0 miCalmClear
5:15 PM60.8 °F8.6 °F13 %30.02 in2.5 miEast (90°)11.5 mphHaze
5:30 PM59.0 °F8.6 °F14 %30.02 in10.0 miEast (100°)8.1 mphClear
5:53 PM59.0 °F8.1 °F13 %29.95 in10.0 miVariable4.6 mphClear
6:53 PM55.9 °F6.1 °F14 %29.94 in10.0 miENE (60°)6.9 mphClear
7:53 PM48.9 °F18.0 °F29 %29.94 in10.0 miCalmClear
8:53 PM43.0 °F18.0 °F37 %29.98 in10.0 miCalmClear
9:53 PM39.9 °F17.1 °F40 %30.00 in10.0 miCalmClear
10:53 PM37.9 °F19.0 °F47 %30.00 in10.0 miCalmClear
11:53 PM36.0 °F19.0 °F50 %30.01 in10.0 miSouth (190°)5.8 mphClear
Hourly data recorded from KTVL, located miles away from South Lake Tahoe, California







STORIES FROM OUR PARTNERS